Printer-friendly version

IAU Minor Planet Center

Minor Planet Center

MPEC 1999-E26: 1999 EO3

The following Minor Planet Electronic Circular may be linked-to from your own Web pages, but must not otherwise be redistributed electronically.


Read MPEC 1999-E25 Read MPEC 1999-F01


M.P.E.C. 1999-E26                                Issued 1999 Mar. 15, 21:14 UT

     The Minor Planet Electronic Circulars contain information on unusual
         minor planets and routine data on comets.  They are published
   on behalf of Commission 20 of the International Astronomical Union by the
          Minor Planet Center, Smithsonian Astrophysical Observatory,
                          Cambridge, MA 02138, U.S.A.

             BMARSDEN@CFA.HARVARD.EDU or GWILLIAMS@CFA.HARVARD.EDU
          URL http://cfa-www.harvard.edu/iau/mpc.html  ISSN 1523-6714

                                   1999 EO3

Observations:
     J99E03O* C1999 03 13.14056 08 14 42.63 +18 37 36.5          18.9 V      691
     J99E03O  C1999 03 13.16275 08 14 48.71 +18 38 49.7          18.9 V      691
     J99E03O  C1999 03 13.18482 08 14 54.77 +18 40 02.3          18.9 V      691
     J99E03O  C1999 03 13.20203 08 14 59.47 +18 40 58.7          18.9 V      691
     J99E03O  C1999 03 13.20884 08 15 01.34 +18 41 22.2          18.9 V      691
     J99E03O  C1999 03 13.21484 08 15 02.94 +18 41 41.6          18.9 V      691
     J99E03O  C1999 03 13.33816 08 15 36.88 +18 48 23.5          18.9 V      691
     J99E03O  C1999 03 13.34398 08 15 38.50 +18 48 42.1          18.9 V      691
     J99E03O  C1999 03 13.96870 08 18 34.07 +19 22 04.0                      046
     J99E03O  C1999 03 13.97194 08 18 34.84 +19 22 12.9                      046
     J99E03O  C1999 03 13.97314 08 18 35.23 +19 22 17.0                      046
     J99E03O  C1999 03 13.97420 08 18 35.40 +19 22 20.4          17.9 R      046
     J99E03O  C1999 03 14.13031 08 19 20.23 +19 30 37.4          18.9 V      691
     J99E03O  C1999 03 14.13489 08 19 21.46 +19 30 51.7          18.9 V      691
     J99E03O  C1999 03 14.13917 08 19 22.59 +19 31 05.0          18.9 V      691
     J99E03O  C1999 03 14.17070 08 19 30.95 +19 32 44.7                      711
     J99E03O  C1999 03 14.17503 08 19 32.10 +19 32 58.3                      711
     J99E03O  C1999 03 14.17921 08 19 33.22 +19 33 11.1                      711
     J99E03O  C1999 03 15.27766 08 24 34.31 +20 28 19.3          19.3 V      691
     J99E03O  C1999 03 15.28591 08 24 36.57 +20 28 43.7          19.0 V      691

Observer details:
046 Klet.  Observers J. Ticha, M. Tichy.  Measurer M. Tichy.  0.57-m f/5.2
    reflector + CCD.
691 Steward Observatory, Kitt Peak.  Observers J. V. Scotti, J. Montani.
    0.9-m Spacewatch telescope.
711 McDonald Observatory.  Observer P. J. Shelus.  0.76-m reflector + CCD.

Orbital elements:
1999 EO3
Epoch 1999 Mar. 3.0 TT = JDT 2451240.5                  Williams
M   9.82633              (2000.0)            P               Q
n   0.22472518     Peri.  304.46320     -0.27269971     -0.95210382
a   2.6793836      Node   159.93673     +0.96057569     -0.27752704
e   0.6046529      Incl.   23.77873     +0.05412217     +0.12836302
P   4.39           H   19.0           G   0.15
From 20 observations 1999 Mar. 13-15.

Ephemeris:
1999 EO3                 a,e,i = 2.68, 0.60, 24                  q = 1.0593
Date    TT    R. A. (2000) Decl.     Delta      r     Elong.  Phase     V
1999 03 13    08 14.04   +18 29.9    0.365    1.259   129.6    37.5    18.8
1999 03 18    08 36.60   +22 30.0    0.410    1.292   128.7    36.9    19.1
1999 03 23    08 57.08   +25 23.9    0.460    1.327   127.2    36.8    19.4
1999 03 28    09 15.63   +27 24.9    0.515    1.362   125.3    36.7    19.7
1999 04 02    09 32.46   +28 44.9    0.574    1.399   123.2    36.7    20.0
1999 04 07    09 47.79   +29 33.3    0.637    1.437   121.1    36.6    20.3
1999 04 12    10 01.84   +29 57.3    0.702    1.475   118.9    36.5    20.6
1999 04 17    10 14.83   +30 02.3    0.770    1.514   116.6    36.3    20.8
1999 04 22    10 26.92   +29 52.4    0.841    1.553   114.3    36.1    21.1
1999 04 27    10 38.27   +29 31.0    0.913    1.593   112.1    35.8    21.3
1999 05 02    10 48.99   +29 00.5    0.988    1.633   109.8    35.5    21.5
1999 05 07    10 59.18   +28 22.7    1.064    1.672   107.5    35.1    21.7
1999 05 12    11 08.92   +27 39.3    1.143    1.712   105.2    34.7    21.9

Gareth V. Williams           (C) Copyright 1999 MPC           M.P.E.C. 1999-E26

Read MPEC 1999-E25 Read MPEC 1999-F01


Our Web policy. Index to the CBAT/MPC/ICQ pages.


Valid HTML 4.01!